EA5ZF Weather Reports


time (UTC)temp
C
wind
direction
speed
KPH
gust
KPH
rain 1hr
cm
rain 24hr
cm
rain mn
cm
humidity
%
barometer
mb
20260508060526 13 0.0 0.0 0.00 0.00 0.00 80 1013.9
20260508055542 13 0.0 0.0 0.00 0.00 0.00 81 1013.7
20260508054522 12 0.0 0.0 0.00 0.00 0.00 82 1013.4
20260508053522 12 0.0 1.6 0.00 0.00 0.00 82 1013.3
20260508052522 12 0.0 0.0 0.00 0.00 0.00 84 1013.1
20260508051522 12 0.0 0.0 0.00 0.00 0.00 84 1013.0
20260508050523 12 0.0 0.0 0.00 0.00 0.00 84 1012.9
20260508045602 12 0.0 1.6 0.00 0.00 0.00 84 1012.8
20260508044522 12 0.0 0.0 0.00 0.00 0.00 84 1012.7
20260508043522 12 0.0 0.0 0.00 0.00 0.00 84 1012.7
20260508042522 12 0.0 0.0 0.00 0.00 0.00 83 1012.6
20260508041522 12 0.0 0.0 0.00 0.00 0.00 83 1012.7
20260508040522 12 0.0 0.0 0.00 0.00 0.00 83 1012.5
20260508035522 12 0.0 0.0 0.00 0.00 0.00 83 1012.4
20260508034542 12 0.0 1.6 0.00 0.00 0.00 83 1012.4
20260508033523 12 0.0 0.0 0.00 0.00 0.00 84 1012.6
20260508032522 13 0.0 3.2 0.00 0.00 0.00 83 1012.7
20260508031522 13 0.0 1.6 0.00 0.00 0.00 84 1012.8
20260508030522 13 0.0 0.0 0.00 0.00 0.00 84 1012.9
20260508025522 12 0.0 0.0 0.00 0.00 0.00 85 1013.0
20260508024522 12 0.0 1.6 0.00 0.00 0.00 84 1013.2
20260508023601 13 0.0 3.2 0.00 0.00 0.00 84 1013.2
20260508022522 13 0.0 1.6 0.00 0.00 0.00 84 1013.2
20260508021542 13 0.0 0.0 0.00 0.00 0.00 84 1013.2
20260508020522 13 0.0 1.6 0.00 0.00 0.00 84 1013.2
20260508015522 13 0.0 1.6 0.00 0.00 0.00 83 1013.3
20260508014524 13 0.0 1.6 0.00 0.00 0.00 85 1013.3
20260508013522 13 0.0 0.0 0.00 0.00 0.00 85 1013.4
20260508012522 13 0.0 0.0 0.00 0.00 0.00 85 1013.4
20260508011521 13 0.0 0.0 0.00 0.00 0.00 84 1013.5
20260508010528 13 0.0 3.2 0.00 0.00 0.00 84 1013.6
20260508005522 13 203 1.6 4.8 0.00 0.00 0.00 84 1013.6
20260508004522 13 225 1.6 4.8 0.00 0.00 0.00 85 1013.6
20260508003523 13 0.0 3.2 0.00 0.00 0.00 86 1013.7
20260508002529 13 0.0 1.6 0.00 0.00 0.00 85 1013.8
20260508001522 13 0.0 0.0 0.00 0.00 0.00 85 1013.9
20260508000523 13 0.0 0.0 0.00 0.00 0.00 84 1014.1
20260507235530 13 0.0 1.6 0.00 0.00 0.00 84 1014.2
20260507234521 13 0.0 0.0 0.00 0.00 0.00 85 1014.2
20260507233527 13 0.0 0.0 0.00 0.00 0.00 85 1014.3
20260507232605 14 0.0 0.0 0.00 0.00 0.00 83 1014.2
20260507231549 14 0.0 0.0 0.00 0.00 0.00 83 1014.4
20260507230526 14 0.0 0.0 0.00 0.00 0.00 85 1014.5
20260507225528 14 0.0 0.0 0.00 0.00 0.00 82 1014.6
20260507224532 14 0.0 0.0 0.00 0.00 0.00 81 1014.7
20260507223522 15 0.0 1.6 0.00 0.00 0.00 80 1014.7
20260507222525 15 0.0 1.6 0.00 0.00 0.00 80 1014.6
20260507221548 15 0.0 0.0 0.00 0.00 0.00 80 1014.6
20260507220522 15 0.0 3.2 0.00 0.00 0.00 79 1014.5
20260507215543 15 0.0 0.0 0.00 0.00 0.00 78 1014.4
20260507214524 15 0.0 0.0 0.00 0.00 0.00 83 1014.3
20260507213522 16 0.0 0.0 0.00 0.00 0.00 82 1014.3
20260507212523 16 0.0 1.6 0.00 0.00 0.00 82 1014.2
20260507211526 16 0.0 3.2 0.00 0.00 0.00 81 1014.1
20260507210522 16 315 1.6 4.8 0.00 0.00 0.00 79 1014.0
20260507205522 16 0.0 1.6 0.00 0.00 0.00 77 1013.8
20260507204522 16 0.0 1.6 0.00 0.00 0.00 77 1013.9
20260507203523 16 0.0 3.2 0.00 0.00 0.00 77 1013.9
20260507202522 16 0.0 1.6 0.00 0.00 0.00 75 1013.9
20260507201522 16 0.0 3.2 0.00 0.00 0.00 72 1013.8
20260507200522 16 0.0 3.2 0.00 0.00 0.00 70 1013.6
20260507195522 16 0.0 3.2 0.00 0.00 0.00 70 1013.6
20260507194541 16 338 1.6 4.8 0.00 0.00 0.00 71 1013.5
20260507193542 16 0.0 3.2 0.00 0.00 0.00 70 1013.3
20260507192524 16 338 1.6 4.8 0.00 0.00 0.00 69 1013.2
20260507191522 16 315 1.6 3.2 0.00 0.00 0.00 67 1013.3
20260507190523 17 293 1.6 6.4 0.00 0.00 0.00 66 1013.2
20260507185522 17 0.0 1.6 0.00 0.00 0.00 69 1013.2
20260507184525 17 0.0 1.6 0.00 0.00 0.00 69 1013.2
20260507183520 17 0.0 3.2 0.00 0.00 0.00 68 1013.1
20260507182523 17 338 1.6 6.4 0.00 0.00 0.00 67 1013.1
20260507181533 17 45 1.6 8.0 0.00 0.00 0.00 68 1013.0
20260507180526 17 68 1.6 6.4 0.00 0.00 0.00 64 1012.9
20260507175522 17 315 1.6 4.8 0.00 0.00 0.00 63 1013.0
20260507174524 17 338 3.2 4.8 0.00 0.00 0.00 62 1012.9
20260507173528 17 338 1.6 6.4 0.00 0.00 0.00 62 1012.8
20260507172523 17 315 6.4 11.3 0.00 0.00 0.00 61 1012.7
20260507171522 17 293 4.8 9.7 0.00 0.00 0.00 63 1012.6
20260507170522 17 0.0 4.8 0.00 0.00 0.00 66 1012.5
20260507165522 17 315 1.6 4.8 0.00 0.00 0.00 64 1012.5
20260507164522 17 338 4.8 9.7 0.00 0.00 0.00 64 1012.5
20260507163527 17 315 4.8 9.7 0.00 0.00 0.00 63 1012.5
20260507162521 17 315 8.0 14.5 0.00 0.00 0.00 63 1012.3
20260507161523 17 315 6.4 14.5 0.00 0.00 0.00 65 1012.2
20260507160522 18 45 3.2 14.5 0.00 0.00 0.00 72 1012.3
20260507155542 18 68 3.2 11.3 0.00 0.00 0.00 73 1012.2
20260507154521 18 68 4.8 11.3 0.00 0.00 0.00 70 1012.1
20260507153523 18 68 8.0 16.1 0.00 0.00 0.00 73 1012.1
20260507152522 18 113 4.8 11.3 0.00 0.00 0.00 73 1012.0
20260507151547 18 68 6.4 12.9 0.00 0.00 0.00 74 1012.0
20260507150521 18 68 6.4 14.5 0.00 0.00 0.00 73 1012.1
20260507145527 18 68 4.8 11.3 0.00 0.00 0.00 70 1012.1
20260507144523 18 68 4.8 14.5 0.00 0.00 0.00 68 1012.1
20260507143523 18 45 6.4 17.7 0.00 0.00 0.00 60 1012.1
20260507142545 18 135 8.0 20.9 0.00 0.00 0.00 70 1012.2
20260507141522 19 113 8.0 17.7 0.00 0.00 0.00 71 1012.3
20260507140522 20 113 6.4 14.5 0.00 0.00 0.00 70 1012.4
20260507135521 20 113 8.0 17.7 0.00 0.00 0.00 65 1012.6
20260507134523 19 68 6.4 11.3 0.00 0.00 0.00 65 1012.6
20260507133522 19 68 4.8 17.7 0.00 0.00 0.00 66 1012.7
20260507132521 19 113 1.6 9.7 0.00 0.00 0.00 64 1012.7
20260507131523 19 113 3.2 9.7 0.00 0.00 0.00 63 1012.7
20260507130523 19 68 4.8 12.9 0.00 0.00 0.00 64 1012.8
20260507125521 19 68 6.4 16.1 0.00 0.00 0.00 64 1013.0
20260507124522 18 68 8.0 16.1 0.00 0.00 0.00 62 1013.0
20260507123521 18 68 6.4 16.1 0.00 0.00 0.00 60 1013.1
20260507122543 18 68 9.7 16.1 0.00 0.00 0.00 63 1013.2
20260507121542 18 68 4.8 11.3 0.00 0.00 0.00 61 1013.4
20260507120521 18 113 4.8 12.9 0.00 0.00 0.00 67 1013.6
20260507115521 18 68 4.8 14.5 0.00 0.00 0.00 69 1013.7
20260507114542 18 113 8.0 17.7 0.00 0.00 0.00 71 1013.8
20260507113523 18 68 6.4 16.1 0.00 0.00 0.00 70 1013.9
20260507112522 19 68 6.4 14.5 0.00 0.00 0.00 68 1013.8
20260507111524 19 68 8.0 17.7 0.00 0.00 0.00 66 1014.0
20260507110521 20 68 4.8 20.9 0.00 0.00 0.00 62 1014.0
20260507105521 20 113 4.8 17.7 0.00 0.00 0.00 59 1013.9
20260507104521 19 45 6.4 19.3 0.00 0.00 0.00 60 1013.9
20260507103521 19 68 8.0 20.9 0.00 0.00 0.00 57 1013.9
20260507102524 20 68 8.0 20.9 0.00 0.00 0.00 57 1014.0
20260507101541 20 45 6.4 22.5 0.00 0.00 0.00 59 1014.0
20260507100521 18 45 8.0 19.3 0.00 0.00 0.00 60 1014.0
20260507095521 19 68 4.8 12.9 0.00 0.00 0.00 60 1014.1
20260507094523 18 68 8.0 17.7 0.00 0.00 0.00 65 1014.2
20260507093523 18 68 1.6 11.3 0.00 0.00 0.00 67 1014.2
20260507092521 18 315 8.0 16.1 0.00 0.00 0.00 68 1014.2
20260507091521 18 45 3.2 9.7 0.00 0.00 0.00 69 1014.1
20260507090528 18 45 6.4 14.5 0.00 0.00 0.00 69 1014.3
20260507085521 18 68 4.8 11.3 0.00 0.00 0.00 68 1014.3
20260507084521 17 45 3.2 11.3 0.00 0.00 0.00 70 1014.2
20260507083521 17 338 6.4 12.9 0.00 0.00 0.00 71 1014.2
20260507082525 17 45 6.4 17.7 0.00 0.00 0.00 72 1014.3
20260507081525 17 68 3.2 11.3 0.00 0.00 0.00 72 1014.2
20260507080523 17 68 8.0 17.7 0.00 0.00 0.00 72 1014.2
20260507075543 17 68 8.0 19.3 0.00 0.00 0.00 72 1014.1
20260507074525 17 45 4.8 16.1 0.00 0.00 0.00 72 1014.2
20260507073523 17 315 4.8 11.3 0.00 0.00 0.00 71 1014.1
20260507072543 17 23 4.8 16.1 0.00 0.00 0.00 72 1013.9
20260507071525 17 68 8.0 16.1 0.00 0.00 0.00 71 1013.9
20260507070523 17 45 4.8 12.9 0.00 0.00 0.00 72 1013.8
20260507065523 16 45 4.8 12.9 0.00 0.00 0.00 73 1013.8
20260507064523 16 45 8.0 14.5 0.00 0.00 0.00 74 1013.7
20260507063525 16 45 6.4 14.5 0.00 0.00 0.00 75 1013.7
20260507062542 16 68 3.2 9.7 0.00 0.00 0.00 75 1013.7
20260507061543 16 45 3.2 8.0 0.00 0.00 0.00 74 1013.7